This is the latest recevied weather packets stored in our database for station/object KC1BRV. If no packets are shown the sender has not sent any weather packets the latest 1 day(s).
| Time | Temp. | Humidity | Pressure | Rain* | Wind** | Luminosity | Snow |
|---|---|---|---|---|---|---|---|
| 1778042907 | 14.44° C | 78% | 1013.4 hPa | 0 mm | 0.45 m/s, 159° | 0 W/m² | - |
| 1778042605 | 15° C | 77% | 1013.3 hPa | 0 mm | 0 m/s | 0 W/m² | - |
| 1778042302 | 15° C | 76% | 1013.3 hPa | 0 mm | 0.45 m/s, 97° | 0 W/m² | - |
| 1778041999 | 15° C | 76% | 1013.3 hPa | 0 mm | 1.79 m/s, 163° | 0 W/m² | - |
| 1778041698 | 15° C | 75% | 1013.3 hPa | 0 mm | 0.45 m/s, 147° | 0 W/m² | - |
| 1778041396 | 15.56° C | 75% | 1013.4 hPa | 0 mm | 0 m/s | 0 W/m² | - |
| 1778041095 | 15.56° C | 74% | 1013.2 hPa | 0 mm | 0 m/s | 0 W/m² | - |
| 1778040791 | 15.56° C | 74% | 1013.1 hPa | 0 mm | 0 m/s | 0 W/m² | - |
| 1778040489 | 15.56° C | 74% | 1013.3 hPa | 0 mm | 0.45 m/s, 102° | 0 W/m² | - |
| 1778040186 | 15.56° C | 74% | 1013.1 hPa | 0 mm | 0.45 m/s, 104° | 0 W/m² | - |
| 1778039882 | 15.56° C | 74% | 1013.1 hPa | 0 mm | 0.45 m/s, 50° | 0 W/m² | - |
| 1778039579 | 15.56° C | 74% | 1013.2 hPa | 0 mm | 0.89 m/s, 72° | 0 W/m² | - |
| 1778039276 | 15.56° C | 74% | 1013.1 hPa | 0 mm | 0.45 m/s, 289° | 0 W/m² | - |
| 1778038973 | 15.56° C | 74% | 1013.1 hPa | 0 mm | 0.45 m/s, 149° | 0 W/m² | - |
| 1778038670 | 15.56° C | 74% | 1013.2 hPa | 0 mm | 0.45 m/s, 1° | 0 W/m² | - |
| 1778038367 | 15.56° C | 74% | 1013.3 hPa | 0 mm | 0 m/s | 0 W/m² | - |
| 1778038064 | 15.56° C | 73% | 1013.1 hPa | 0 mm | 0.45 m/s, 86° | 0 W/m² | - |
| 1778037761 | 15.56° C | 73% | 1013.1 hPa | 0 mm | 0 m/s | 0 W/m² | - |
| 1778037458 | 15.56° C | 72% | 1012.9 hPa | 0 mm | 0.89 m/s, 94° | 0 W/m² | - |
| 1778037155 | 15.56° C | 72% | 1013.1 hPa | 0 mm | 1.79 m/s, 172° | 0 W/m² | - |
| 1778036853 | 15.56° C | 71% | 1013 hPa | 0 mm | 0.89 m/s, 296° | 0 W/m² | - |
| 1778036550 | 15.56° C | 71% | 1013 hPa | 0 mm | 2.24 m/s, 263° | 0 W/m² | - |
| 1778036247 | 15.56° C | 71% | 1013 hPa | 0 mm | 0.45 m/s, 100° | 0 W/m² | - |
| 1778035944 | 15.56° C | 71% | 1013 hPa | 0 mm | 1.34 m/s, 279° | 0 W/m² | - |
| 1778035641 | 15.56° C | 71% | 1012.8 hPa | 0 mm | 0.45 m/s, 274° | 0 W/m² | - |
* Rain latest hour (hover to see other rain measurements)
** Current wind speed in m/s (hover to see current wind gust speed)